KALPANA-1 (METSAT 1)

Last updated on Jan. 13, 2019, 2:58 a.m. UTC

1 27525U 02043A   19012.35054707 -.00000198  00000-0  00000+0 0  9992
2 27525   8.6278  51.2645 0001829  20.4153 339.6206  0.98340508 59811
UTC
Height (km)
Latitude
Longitude
Inclination
Orbital Period
UTC large
Height (km)
Speed (km/s)
/
Latitude / Longitude
Inclination (degrees)
Orbital Period (minutes)
Azimuth
Elevation
Range (km)
Doppler Factor
iOS Compass Heading
iOS Angle